iso_date,epoch_date,Year,Hour,Min,DOY,POS_DOY,Lat,Lon,BP,Ts,Ta,has_bp,has_ts,has_ta,BuoyID,Buoy_Type,Buoy_Owner,Logistics,Hemisphere
2019-11-18T06:01:00Z,1574056860,2019,6,1,322.2507,322.2507,59.882,-65.903,1007.4,0.75,-999.0,yes,yes,no,300234065714420,BD2GHI,AOML,CCGS_HENRY_LARSEN,North
2019-11-18T07:00:02Z,1574060403,2019,7,0,322.2917,322.2917,59.909,-65.873,1007.2,0.73,-999.0,yes,yes,no,300234065714420,BD2GHI,AOML,CCGS_HENRY_LARSEN,North
2019-11-18T07:59:57Z,1574063997,2019,8,0,322.3333,322.3333,59.94,-65.846,1007.3,0.75,-999.0,yes,yes,no,300234065714420,BD2GHI,AOML,CCGS_HENRY_LARSEN,North
2019-11-18T09:00:00Z,1574067600,2019,9,0,322.375,322.375,59.974,-65.816,1007.3,0.74,-999.0,yes,yes,no,300234065714420,BD2GHI,AOML,CCGS_HENRY_LARSEN,North
2019-11-18T10:00:02Z,1574071203,2019,10,0,322.4167,322.4167,60.005,-65.783,1007.3,0.75,-999.0,yes,yes,no,300234065714420,BD2GHI,AOML,CCGS_HENRY_LARSEN,North
2019-11-18T10:59:57Z,1574074797,2019,11,0,322.4583,322.4583,60.021,-65.749,1007.2,0.75,-999.0,yes,yes,no,300234065714420,BD2GHI,AOML,CCGS_HENRY_LARSEN,North
2019-11-18T12:00:00Z,1574078400,2019,12,0,322.5,322.5,60.028,-65.725,1007.4,0.74,-999.0,yes,yes,no,300234065714420,BD2GHI,AOML,CCGS_HENRY_LARSEN,North
2019-11-18T13:00:02Z,1574082003,2019,13,0,322.5417,322.5417,60.029,-65.711,1008.0,0.74,-999.0,yes,yes,no,300234065714420,BD2GHI,AOML,CCGS_HENRY_LARSEN,North
2019-11-18T14:03:59Z,1574085839,2019,14,4,322.5861,322.5861,60.021,-65.696,1008.1,0.73,-999.0,yes,yes,no,300234065714420,BD2GHI,AOML,CCGS_HENRY_LARSEN,North
2019-11-18T15:04:01Z,1574089442,2019,15,4,322.6278,322.6278,60.014,-65.679,1008.2,0.72,-999.0,yes,yes,no,300234065714420,BD2GHI,AOML,CCGS_HENRY_LARSEN,North
2019-11-18T16:03:56Z,1574093036,2019,16,4,322.6694,322.6694,60.015,-65.664,1008.1,0.72,-999.0,yes,yes,no,300234065714420,BD2GHI,AOML,CCGS_HENRY_LARSEN,North
2019-11-18T16:59:57Z,1574096397,2019,17,0,322.7083,322.7083,60.021,-65.649,1008.5,0.72,-999.0,yes,yes,no,300234065714420,BD2GHI,AOML,CCGS_HENRY_LARSEN,North
2019-11-18T18:00:00Z,1574100000,2019,18,0,322.75,322.75,60.041,-65.62,1009.0,0.71,-999.0,yes,yes,no,300234065714420,BD2GHI,AOML,CCGS_HENRY_LARSEN,North
2019-11-18T19:00:02Z,1574103603,2019,19,0,322.7917,322.7917,60.071,-65.584,1009.6,0.72,-999.0,yes,yes,no,300234065714420,BD2GHI,AOML,CCGS_HENRY_LARSEN,North
2019-11-18T20:03:59Z,1574107439,2019,20,4,322.8361,322.8361,60.108,-65.522,1010.4,0.71,-999.0,yes,yes,no,300234065714420,BD2GHI,AOML,CCGS_HENRY_LARSEN,North
2019-11-18T21:01:00Z,1574110860,2019,21,1,322.8757,322.8757,60.14,-65.466,1011.2,0.71,-999.0,yes,yes,no,300234065714420,BD2GHI,AOML,CCGS_HENRY_LARSEN,North
2019-11-18T22:01:03Z,1574114463,2019,22,1,322.9174,322.9174,60.167,-65.413,1011.8,0.68,-999.0,yes,yes,no,300234065714420,BD2GHI,AOML,CCGS_HENRY_LARSEN,North
2019-11-18T23:03:59Z,1574118239,2019,23,4,322.9611,322.9611,60.19,-65.367,1012.2,1.07,-999.0,yes,yes,no,300234065714420,BD2GHI,AOML,CCGS_HENRY_LARSEN,North
2019-11-19T00:00:00Z,1574121600,2019,0,0,323.0,323.0,60.204,-65.335,1012.4,1.13,-999.0,yes,yes,no,300234065714420,BD2GHI,AOML,CCGS_HENRY_LARSEN,North
2019-11-19T01:00:02Z,1574125203,2019,1,0,323.0417,323.0417,60.207,-65.31,1012.6,1.07,-999.0,yes,yes,no,300234065714420,BD2GHI,AOML,CCGS_HENRY_LARSEN,North
2019-11-19T02:00:57Z,1574128858,2019,2,1,323.084,323.084,60.203,-65.304,1012.6,0.98,-999.0,yes,yes,no,300234065714420,BD2GHI,AOML,CCGS_HENRY_LARSEN,North
2019-11-19T03:02:00Z,1574132521,2019,3,2,323.1264,323.1264,60.195,-65.287,1012.5,0.84,-999.0,yes,yes,no,300234065714420,BD2GHI,AOML,CCGS_HENRY_LARSEN,North
2019-11-19T04:00:02Z,1574136003,2019,4,0,323.1667,323.1667,60.192,-65.291,1012.7,1.11,-999.0,yes,yes,no,300234065714420,BD2GHI,AOML,CCGS_HENRY_LARSEN,North
2019-11-19T04:59:57Z,1574139597,2019,5,0,323.2083,323.2083,60.199,-65.308,1012.7,1.13,-999.0,yes,yes,no,300234065714420,BD2GHI,AOML,CCGS_HENRY_LARSEN,North
2019-11-19T06:00:00Z,1574143200,2019,6,0,323.25,323.25,60.218,-65.314,1013.2,1.12,-999.0,yes,yes,no,300234065714420,BD2GHI,AOML,CCGS_HENRY_LARSEN,North
2019-11-19T07:00:02Z,1574146803,2019,7,0,323.2917,323.2917,60.248,-65.309,1013.6,1.13,-999.0,yes,yes,no,300234065714420,BD2GHI,AOML,CCGS_HENRY_LARSEN,North
2019-11-19T08:03:59Z,1574150639,2019,8,4,323.3361,323.3361,60.288,-65.3,1014.1,1.12,-999.0,yes,yes,no,300234065714420,BD2GHI,AOML,CCGS_HENRY_LARSEN,North
2019-11-19T09:04:01Z,1574154242,2019,9,4,323.3778,323.3778,60.322,-65.292,1014.2,1.05,-999.0,yes,yes,no,300234065714420,BD2GHI,AOML,CCGS_HENRY_LARSEN,North
2019-11-19T10:01:03Z,1574157663,2019,10,1,323.4174,323.4174,60.357,-65.282,1014.8,1.07,-999.0,yes,yes,no,300234065714420,BD2GHI,AOML,CCGS_HENRY_LARSEN,North
2019-11-19T10:59:57Z,1574161197,2019,11,0,323.4583,323.4583,60.387,-65.268,1015.0,1.06,-999.0,yes,yes,no,300234065714420,BD2GHI,AOML,CCGS_HENRY_LARSEN,North
2019-11-19T12:00:00Z,1574164800,2019,12,0,323.5,323.5,60.411,-65.258,1015.3,1.02,-999.0,yes,yes,no,300234065714420,BD2GHI,AOML,CCGS_HENRY_LARSEN,North
2019-11-19T13:00:02Z,1574168403,2019,13,0,323.5417,323.5417,60.427,-65.257,1015.6,0.98,-999.0,yes,yes,no,300234065714420,BD2GHI,AOML,CCGS_HENRY_LARSEN,North
2019-11-19T13:59:57Z,1574171997,2019,14,0,323.5833,323.5833,60.434,-65.274,1015.6,0.95,-999.0,yes,yes,no,300234065714420,BD2GHI,AOML,CCGS_HENRY_LARSEN,North
2019-11-19T15:00:00Z,1574175600,2019,15,0,323.625,323.625,60.442,-65.299,1016.1,0.92,-999.0,yes,yes,no,300234065714420,BD2GHI,AOML,CCGS_HENRY_LARSEN,North
2019-11-19T16:00:02Z,1574179203,2019,16,0,323.6667,323.6667,60.447,-65.305,1016.3,0.93,-999.0,yes,yes,no,300234065714420,BD2GHI,AOML,CCGS_HENRY_LARSEN,North
2019-11-19T16:59:57Z,1574182797,2019,17,0,323.7083,323.7083,60.458,-65.303,1016.7,0.93,-999.0,yes,yes,no,300234065714420,BD2GHI,AOML,CCGS_HENRY_LARSEN,North
2019-11-19T18:00:00Z,1574186400,2019,18,0,323.75,323.75,60.472,-65.271,1017.4,0.92,-999.0,yes,yes,no,300234065714420,BD2GHI,AOML,CCGS_HENRY_LARSEN,North
2019-11-19T19:00:02Z,1574190003,2019,19,0,323.7917,323.7917,60.492,-65.221,1018.0,0.88,-999.0,yes,yes,no,300234065714420,BD2GHI,AOML,CCGS_HENRY_LARSEN,North
2019-11-19T19:59:57Z,1574193597,2019,20,0,323.8333,323.8333,60.515,-65.148,1018.8,0.9,-999.0,yes,yes,no,300234065714420,BD2GHI,AOML,CCGS_HENRY_LARSEN,North
2019-11-19T21:00:00Z,1574197200,2019,21,0,323.875,323.875,60.541,-65.078,1019.5,0.87,-999.0,yes,yes,no,300234065714420,BD2GHI,AOML,CCGS_HENRY_LARSEN,North
2019-11-19T22:00:02Z,1574200803,2019,22,0,323.9167,323.9167,60.57,-65.011,1020.2,0.86,-999.0,yes,yes,no,300234065714420,BD2GHI,AOML,CCGS_HENRY_LARSEN,North
2019-11-19T22:59:57Z,1574204397,2019,23,0,323.9583,323.9583,60.598,-64.956,1021.0,0.83,-999.0,yes,yes,no,300234065714420,BD2GHI,AOML,CCGS_HENRY_LARSEN,North
2019-11-20T00:01:00Z,1574208060,2019,0,1,324.0007,324.0007,60.634,-64.918,1021.6,0.85,-999.0,yes,yes,no,300234065714420,BD2GHI,AOML,CCGS_HENRY_LARSEN,North
2019-11-20T01:01:03Z,1574211663,2019,1,1,324.0424,324.0424,60.678,-64.895,1022.0,0.84,-999.0,yes,yes,no,300234065714420,BD2GHI,AOML,CCGS_HENRY_LARSEN,North
2019-11-20T01:59:57Z,1574215197,2019,2,0,324.0833,324.0833,60.718,-64.865,1022.5,0.89,-999.0,yes,yes,no,300234065714420,BD2GHI,AOML,CCGS_HENRY_LARSEN,North
2019-11-20T03:00:00Z,1574218800,2019,3,0,324.125,324.125,60.753,-64.812,1022.3,0.84,-999.0,yes,yes,no,300234065714420,BD2GHI,AOML,CCGS_HENRY_LARSEN,North
2019-11-20T04:00:02Z,1574222403,2019,4,0,324.1667,324.1667,60.774,-64.769,1022.5,0.84,-999.0,yes,yes,no,300234065714420,BD2GHI,AOML,CCGS_HENRY_LARSEN,North
2019-11-20T04:59:57Z,1574225997,2019,5,0,324.2083,324.2083,60.781,-64.71,1022.5,0.81,-999.0,yes,yes,no,300234065714420,BD2GHI,AOML,CCGS_HENRY_LARSEN,North
2019-11-20T06:00:00Z,1574229600,2019,6,0,324.25,324.25,60.769,-64.645,1022.8,0.84,-999.0,yes,yes,no,300234065714420,BD2GHI,AOML,CCGS_HENRY_LARSEN,North
2019-11-20T07:00:02Z,1574233203,2019,7,0,324.2917,324.2917,60.752,-64.539,1023.3,0.81,-999.0,yes,yes,no,300234065714420,BD2GHI,AOML,CCGS_HENRY_LARSEN,North
2019-11-20T07:59:57Z,1574236797,2019,8,0,324.3333,324.3333,60.756,-64.399,1023.7,0.96,-999.0,yes,yes,no,300234065714420,BD2GHI,AOML,CCGS_HENRY_LARSEN,North
2019-11-20T09:00:00Z,1574240400,2019,9,0,324.375,324.375,60.754,-64.279,1024.2,0.98,-999.0,yes,yes,no,300234065714420,BD2GHI,AOML,CCGS_HENRY_LARSEN,North
2019-11-20T10:00:02Z,1574244003,2019,10,0,324.4167,324.4167,60.744,-64.172,1024.6,1.02,-999.0,yes,yes,no,300234065714420,BD2GHI,AOML,CCGS_HENRY_LARSEN,North
2019-11-20T10:59:57Z,1574247597,2019,11,0,324.4583,324.4583,60.733,-64.08,1024.8,1.07,-999.0,yes,yes,no,300234065714420,BD2GHI,AOML,CCGS_HENRY_LARSEN,North
2019-11-20T12:00:00Z,1574251200,2019,12,0,324.5,324.5,60.718,-64.015,1024.9,1.06,-999.0,yes,yes,no,300234065714420,BD2GHI,AOML,CCGS_HENRY_LARSEN,North
2019-11-20T13:00:02Z,1574254803,2019,13,0,324.5417,324.5417,60.702,-63.983,1024.9,1.09,-999.0,yes,yes,no,300234065714420,BD2GHI,AOML,CCGS_HENRY_LARSEN,North
2019-11-20T13:59:57Z,1574258397,2019,14,0,324.5833,324.5833,60.688,-63.971,1024.9,1.12,-999.0,yes,yes,no,300234065714420,BD2GHI,AOML,CCGS_HENRY_LARSEN,North
2019-11-20T15:00:00Z,1574262000,2019,15,0,324.625,324.625,60.68,-63.989,1024.6,1.12,-999.0,yes,yes,no,300234065714420,BD2GHI,AOML,CCGS_HENRY_LARSEN,North
2019-11-20T16:00:02Z,1574265603,2019,16,0,324.6667,324.6667,60.676,-64.018,1024.4,1.15,-999.0,yes,yes,no,300234065714420,BD2GHI,AOML,CCGS_HENRY_LARSEN,North
2019-11-20T16:59:57Z,1574269197,2019,17,0,324.7083,324.7083,60.678,-64.047,1024.0,1.13,-999.0,yes,yes,no,300234065714420,BD2GHI,AOML,CCGS_HENRY_LARSEN,North
2019-11-20T18:00:00Z,1574272800,2019,18,0,324.75,324.75,60.685,-64.066,1023.8,1.12,-999.0,yes,yes,no,300234065714420,BD2GHI,AOML,CCGS_HENRY_LARSEN,North
2019-11-20T19:00:02Z,1574276403,2019,19,0,324.7917,324.7917,60.695,-64.058,1023.9,1.11,-999.0,yes,yes,no,300234065714420,BD2GHI,AOML,CCGS_HENRY_LARSEN,North
2019-11-20T19:59:57Z,1574279997,2019,20,0,324.8333,324.8333,60.702,-64.028,1023.9,1.09,-999.0,yes,yes,no,300234065714420,BD2GHI,AOML,CCGS_HENRY_LARSEN,North
2019-11-20T21:00:00Z,1574283600,2019,21,0,324.875,324.875,60.704,-63.976,1024.0,1.02,-999.0,yes,yes,no,300234065714420,BD2GHI,AOML,CCGS_HENRY_LARSEN,North
2019-11-20T22:00:02Z,1574287203,2019,22,0,324.9167,324.9167,60.7,-63.909,1023.8,1.1,-999.0,yes,yes,no,300234065714420,BD2GHI,AOML,CCGS_HENRY_LARSEN,North
2019-11-20T22:59:57Z,1574290797,2019,23,0,324.9583,324.9583,60.693,-63.847,1023.7,1.1,-999.0,yes,yes,no,300234065714420,BD2GHI,AOML,CCGS_HENRY_LARSEN,North
2019-11-21T00:00:00Z,1574294400,2019,0,0,325.0,325.0,60.681,-63.799,1023.4,1.03,-999.0,yes,yes,no,300234065714420,BD2GHI,AOML,CCGS_HENRY_LARSEN,North
2019-11-21T01:00:02Z,1574298003,2019,1,0,325.0417,325.0417,60.67,-63.767,1023.1,1.03,-999.0,yes,yes,no,300234065714420,BD2GHI,AOML,CCGS_HENRY_LARSEN,North
2019-11-21T01:59:57Z,1574301597,2019,2,0,325.0833,325.0833,60.656,-63.754,1022.7,1.0,-999.0,yes,yes,no,300234065714420,BD2GHI,AOML,CCGS_HENRY_LARSEN,North
2019-11-21T03:00:00Z,1574305200,2019,3,0,325.125,325.125,60.643,-63.758,1022.6,0.98,-999.0,yes,yes,no,300234065714420,BD2GHI,AOML,CCGS_HENRY_LARSEN,North
2019-11-21T04:00:02Z,1574308803,2019,4,0,325.1667,325.1667,60.636,-63.79,1022.0,0.96,-999.0,yes,yes,no,300234065714420,BD2GHI,AOML,CCGS_HENRY_LARSEN,North
2019-11-21T04:59:57Z,1574312397,2019,5,0,325.2083,325.2083,60.635,-63.831,1021.5,0.98,-999.0,yes,yes,no,300234065714420,BD2GHI,AOML,CCGS_HENRY_LARSEN,North
2019-11-21T06:00:00Z,1574316000,2019,6,0,325.25,325.25,60.637,-63.865,1020.6,0.91,-999.0,yes,yes,no,300234065714420,BD2GHI,AOML,CCGS_HENRY_LARSEN,North
2019-11-21T07:00:02Z,1574319603,2019,7,0,325.2917,325.2917,60.64,-63.883,1019.9,0.9,-999.0,yes,yes,no,300234065714420,BD2GHI,AOML,CCGS_HENRY_LARSEN,North
2019-11-21T07:59:57Z,1574323197,2019,8,0,325.3333,325.3333,60.645,-63.881,1019.1,0.99,-999.0,yes,yes,no,300234065714420,BD2GHI,AOML,CCGS_HENRY_LARSEN,North
2019-11-21T09:00:00Z,1574326800,2019,9,0,325.375,325.375,60.648,-63.856,1018.6,0.99,-999.0,yes,yes,no,300234065714420,BD2GHI,AOML,CCGS_HENRY_LARSEN,North
2019-11-21T10:00:02Z,1574330403,2019,10,0,325.4167,325.4167,60.648,-63.813,1018.1,1.01,-999.0,yes,yes,no,300234065714420,BD2GHI,AOML,CCGS_HENRY_LARSEN,North
2019-11-21T10:59:57Z,1574333997,2019,11,0,325.4583,325.4583,60.645,-63.762,1017.6,1.0,-999.0,yes,yes,no,300234065714420,BD2GHI,AOML,CCGS_HENRY_LARSEN,North
2019-11-21T12:00:00Z,1574337600,2019,12,0,325.5,325.5,60.639,-63.712,1017.0,1.0,-999.0,yes,yes,no,300234065714420,BD2GHI,AOML,CCGS_HENRY_LARSEN,North
2019-11-21T13:00:02Z,1574341203,2019,13,0,325.5417,325.5417,60.63,-63.669,1016.3,1.03,-999.0,yes,yes,no,300234065714420,BD2GHI,AOML,CCGS_HENRY_LARSEN,North
2019-11-21T13:59:57Z,1574344797,2019,14,0,325.5833,325.5833,60.616,-63.637,1015.7,1.02,-999.0,yes,yes,no,300234065714420,BD2GHI,AOML,CCGS_HENRY_LARSEN,North
2019-11-21T15:00:00Z,1574348400,2019,15,0,325.625,325.625,60.603,-63.624,1015.0,1.04,-999.0,yes,yes,no,300234065714420,BD2GHI,AOML,CCGS_HENRY_LARSEN,North
2019-11-21T16:00:02Z,1574352003,2019,16,0,325.6667,325.6667,60.593,-63.633,1013.9,1.03,-999.0,yes,yes,no,300234065714420,BD2GHI,AOML,CCGS_HENRY_LARSEN,North
2019-11-21T16:59:57Z,1574355597,2019,17,0,325.7083,325.7083,60.583,-63.659,1013.1,1.02,-999.0,yes,yes,no,300234065714420,BD2GHI,AOML,CCGS_HENRY_LARSEN,North
2019-11-21T18:00:00Z,1574359200,2019,18,0,325.75,325.75,60.576,-63.689,1012.5,0.99,-999.0,yes,yes,no,300234065714420,BD2GHI,AOML,CCGS_HENRY_LARSEN,North
2019-11-21T19:00:02Z,1574362803,2019,19,0,325.7917,325.7917,60.574,-63.724,1011.8,0.99,-999.0,yes,yes,no,300234065714420,BD2GHI,AOML,CCGS_HENRY_LARSEN,North
2019-11-21T20:00:57Z,1574366458,2019,20,1,325.834,325.834,60.568,-63.753,1011.5,0.9,-999.0,yes,yes,no,300234065714420,BD2GHI,AOML,CCGS_HENRY_LARSEN,North
2019-11-21T21:00:00Z,1574370000,2019,21,0,325.875,325.875,60.562,-63.769,1010.9,0.91,-999.0,yes,yes,no,300234065714420,BD2GHI,AOML,CCGS_HENRY_LARSEN,North
2019-11-21T22:00:02Z,1574373603,2019,22,0,325.9167,325.9167,60.557,-63.771,1010.0,0.95,-999.0,yes,yes,no,300234065714420,BD2GHI,AOML,CCGS_HENRY_LARSEN,North
2019-11-21T22:59:57Z,1574377197,2019,23,0,325.9583,325.9583,60.551,-63.755,1009.6,0.98,-999.0,yes,yes,no,300234065714420,BD2GHI,AOML,CCGS_HENRY_LARSEN,North
2019-11-22T00:00:00Z,1574380800,2019,0,0,326.0,326.0,60.54,-63.721,1009.3,0.98,-999.0,yes,yes,no,300234065714420,BD2GHI,AOML,CCGS_HENRY_LARSEN,North
2019-11-22T01:00:02Z,1574384403,2019,1,0,326.0417,326.0417,60.529,-63.685,1008.6,0.96,-999.0,yes,yes,no,300234065714420,BD2GHI,AOML,CCGS_HENRY_LARSEN,North
2019-11-22T01:59:57Z,1574387997,2019,2,0,326.0833,326.0833,60.516,-63.657,1007.6,0.97,-999.0,yes,yes,no,300234065714420,BD2GHI,AOML,CCGS_HENRY_LARSEN,North
2019-11-22T03:00:00Z,1574391600,2019,3,0,326.125,326.125,60.506,-63.643,1006.6,0.97,-999.0,yes,yes,no,300234065714420,BD2GHI,AOML,CCGS_HENRY_LARSEN,North
2019-11-22T04:00:02Z,1574395203,2019,4,0,326.1667,326.1667,60.498,-63.644,1005.8,0.97,-999.0,yes,yes,no,300234065714420,BD2GHI,AOML,CCGS_HENRY_LARSEN,North
2019-11-22T04:59:57Z,1574398797,2019,5,0,326.2083,326.2083,60.493,-63.657,1004.7,0.96,-999.0,yes,yes,no,300234065714420,BD2GHI,AOML,CCGS_HENRY_LARSEN,North
2019-11-22T06:00:00Z,1574402400,2019,6,0,326.25,326.25,60.49,-63.684,1003.6,0.96,-999.0,yes,yes,no,300234065714420,BD2GHI,AOML,CCGS_HENRY_LARSEN,North
2019-11-22T07:00:02Z,1574406003,2019,7,0,326.2917,326.2917,60.491,-63.714,1003.0,0.97,-999.0,yes,yes,no,300234065714420,BD2GHI,AOML,CCGS_HENRY_LARSEN,North
2019-11-22T08:00:57Z,1574409658,2019,8,1,326.334,326.334,60.491,-63.743,1002.1,0.97,-999.0,yes,yes,no,300234065714420,BD2GHI,AOML,CCGS_HENRY_LARSEN,North
2019-11-22T09:00:00Z,1574413200,2019,9,0,326.375,326.375,60.489,-63.759,1001.3,0.96,-999.0,yes,yes,no,300234065714420,BD2GHI,AOML,CCGS_HENRY_LARSEN,North
2019-11-22T10:00:02Z,1574416803,2019,10,0,326.4167,326.4167,60.486,-63.766,1000.4,0.96,-999.0,yes,yes,no,300234065714420,BD2GHI,AOML,CCGS_HENRY_LARSEN,North
2019-11-22T10:59:57Z,1574420397,2019,11,0,326.4583,326.4583,60.484,-63.76,999.6,0.95,-999.0,yes,yes,no,300234065714420,BD2GHI,AOML,CCGS_HENRY_LARSEN,North
2019-11-22T12:00:00Z,1574424000,2019,12,0,326.5,326.5,60.481,-63.737,999.0,0.96,-999.0,yes,yes,no,300234065714420,BD2GHI,AOML,CCGS_HENRY_LARSEN,North
2019-11-22T13:00:02Z,1574427603,2019,13,0,326.5417,326.5417,60.477,-63.709,998.3,0.95,-999.0,yes,yes,no,300234065714420,BD2GHI,AOML,CCGS_HENRY_LARSEN,North
2019-11-22T13:59:57Z,1574431197,2019,14,0,326.5833,326.5833,60.472,-63.679,997.6,0.95,-999.0,yes,yes,no,300234065714420,BD2GHI,AOML,CCGS_HENRY_LARSEN,North
2019-11-22T15:02:00Z,1574434921,2019,15,2,326.6264,326.6264,60.467,-63.654,997.0,0.94,-999.0,yes,yes,no,300234065714420,BD2GHI,AOML,CCGS_HENRY_LARSEN,North
2019-11-22T16:00:02Z,1574438403,2019,16,0,326.6667,326.6667,60.46,-63.649,996.2,0.94,-999.0,yes,yes,no,300234065714420,BD2GHI,AOML,CCGS_HENRY_LARSEN,North
2019-11-22T16:59:57Z,1574441997,2019,17,0,326.7083,326.7083,60.457,-63.659,995.4,0.95,-999.0,yes,yes,no,300234065714420,BD2GHI,AOML,CCGS_HENRY_LARSEN,North
2019-11-22T18:00:00Z,1574445600,2019,18,0,326.75,326.75,60.453,-63.681,994.9,0.95,-999.0,yes,yes,no,300234065714420,BD2GHI,AOML,CCGS_HENRY_LARSEN,North
2019-11-22T19:00:02Z,1574449203,2019,19,0,326.7917,326.7917,60.458,-63.709,994.6,0.96,-999.0,yes,yes,no,300234065714420,BD2GHI,AOML,CCGS_HENRY_LARSEN,North
2019-11-22T19:59:57Z,1574452797,2019,20,0,326.8333,326.8333,60.461,-63.742,994.0,0.95,-999.0,yes,yes,no,300234065714420,BD2GHI,AOML,CCGS_HENRY_LARSEN,North
2019-11-22T21:00:00Z,1574456400,2019,21,0,326.875,326.875,60.466,-63.767,993.6,0.97,-999.0,yes,yes,no,300234065714420,BD2GHI,AOML,CCGS_HENRY_LARSEN,North
2019-11-22T22:03:56Z,1574460236,2019,22,4,326.9194,326.9194,60.47,-63.778,993.3,0.95,-999.0,yes,yes,no,300234065714420,BD2GHI,AOML,CCGS_HENRY_LARSEN,North
2019-11-22T22:59:57Z,1574463597,2019,23,0,326.9583,326.9583,60.47,-63.772,993.1,0.94,-999.0,yes,yes,no,300234065714420,BD2GHI,AOML,CCGS_HENRY_LARSEN,North
2019-11-23T01:00:02Z,1574470803,2019,1,0,327.0417,327.0417,60.471,-63.712,993.4,0.94,-999.0,yes,yes,no,300234065714420,BD2GHI,AOML,CCGS_HENRY_LARSEN,North
2019-11-23T01:59:57Z,1574474397,2019,2,0,327.0833,327.0833,60.469,-63.668,993.3,0.95,-999.0,yes,yes,no,300234065714420,BD2GHI,AOML,CCGS_HENRY_LARSEN,North
2019-11-23T03:00:00Z,1574478000,2019,3,0,327.125,327.125,60.463,-63.625,993.1,0.92,-999.0,yes,yes,no,300234065714420,BD2GHI,AOML,CCGS_HENRY_LARSEN,North
2019-11-23T04:01:03Z,1574481663,2019,4,1,327.1674,327.1674,60.464,-63.593,993.2,0.89,-999.0,yes,yes,no,300234065714420,BD2GHI,AOML,CCGS_HENRY_LARSEN,North
2019-11-23T04:59:57Z,1574485197,2019,5,0,327.2083,327.2083,60.463,-63.573,993.3,0.86,-999.0,yes,yes,no,300234065714420,BD2GHI,AOML,CCGS_HENRY_LARSEN,North
2019-11-23T06:00:00Z,1574488800,2019,6,0,327.25,327.25,60.465,-63.567,993.5,0.84,-999.0,yes,yes,no,300234065714420,BD2GHI,AOML,CCGS_HENRY_LARSEN,North
2019-11-23T07:00:02Z,1574492403,2019,7,0,327.2917,327.2917,60.469,-63.583,993.7,0.82,-999.0,yes,yes,no,300234065714420,BD2GHI,AOML,CCGS_HENRY_LARSEN,North
2019-11-23T07:59:57Z,1574495997,2019,8,0,327.3333,327.3333,60.479,-63.616,994.0,0.84,-999.0,yes,yes,no,300234065714420,BD2GHI,AOML,CCGS_HENRY_LARSEN,North
2019-11-23T09:00:00Z,1574499600,2019,9,0,327.375,327.375,60.487,-63.644,994.4,0.72,-999.0,yes,yes,no,300234065714420,BD2GHI,AOML,CCGS_HENRY_LARSEN,North
2019-11-23T10:00:02Z,1574503203,2019,10,0,327.4167,327.4167,60.503,-63.665,994.7,0.83,-999.0,yes,yes,no,300234065714420,BD2GHI,AOML,CCGS_HENRY_LARSEN,North
2019-11-23T10:59:57Z,1574506797,2019,11,0,327.4583,327.4583,60.51,-63.665,995.3,0.85,-999.0,yes,yes,no,300234065714420,BD2GHI,AOML,CCGS_HENRY_LARSEN,North
2019-11-23T12:00:00Z,1574510400,2019,12,0,327.5,327.5,60.517,-63.652,996.4,0.87,-999.0,yes,yes,no,300234065714420,BD2GHI,AOML,CCGS_HENRY_LARSEN,North
2019-11-23T13:00:02Z,1574514003,2019,13,0,327.5417,327.5417,60.519,-63.625,997.2,0.87,-999.0,yes,yes,no,300234065714420,BD2GHI,AOML,CCGS_HENRY_LARSEN,North
2019-11-23T13:59:57Z,1574517597,2019,14,0,327.5833,327.5833,60.521,-63.592,998.0,0.88,-999.0,yes,yes,no,300234065714420,BD2GHI,AOML,CCGS_HENRY_LARSEN,North
2019-11-23T15:00:00Z,1574521200,2019,15,0,327.625,327.625,60.522,-63.555,999.3,0.87,-999.0,yes,yes,no,300234065714420,BD2GHI,AOML,CCGS_HENRY_LARSEN,North
2019-11-23T16:00:02Z,1574524803,2019,16,0,327.6667,327.6667,60.523,-63.532,999.8,0.86,-999.0,yes,yes,no,300234065714420,BD2GHI,AOML,CCGS_HENRY_LARSEN,North
2019-11-23T16:59:57Z,1574528397,2019,17,0,327.7083,327.7083,60.522,-63.519,1000.3,0.87,-999.0,yes,yes,no,300234065714420,BD2GHI,AOML,CCGS_HENRY_LARSEN,North
2019-11-23T18:00:00Z,1574532000,2019,18,0,327.75,327.75,60.52,-63.528,1001.0,0.88,-999.0,yes,yes,no,300234065714420,BD2GHI,AOML,CCGS_HENRY_LARSEN,North
2019-11-23T19:00:02Z,1574535603,2019,19,0,327.7917,327.7917,60.525,-63.555,1001.6,0.86,-999.0,yes,yes,no,300234065714420,BD2GHI,AOML,CCGS_HENRY_LARSEN,North
2019-11-23T19:59:57Z,1574539197,2019,20,0,327.8333,327.8333,60.53,-63.596,1002.1,0.83,-999.0,yes,yes,no,300234065714420,BD2GHI,AOML,CCGS_HENRY_LARSEN,North
2019-11-23T21:00:00Z,1574542800,2019,21,0,327.875,327.875,60.532,-63.639,1002.5,0.87,-999.0,yes,yes,no,300234065714420,BD2GHI,AOML,CCGS_HENRY_LARSEN,North
2019-11-23T22:00:02Z,1574546403,2019,22,0,327.9167,327.9167,60.535,-63.674,1002.8,0.86,-999.0,yes,yes,no,300234065714420,BD2GHI,AOML,CCGS_HENRY_LARSEN,North
2019-11-23T22:59:57Z,1574549997,2019,23,0,327.9583,327.9583,60.541,-63.7,1002.9,0.89,-999.0,yes,yes,no,300234065714420,BD2GHI,AOML,CCGS_HENRY_LARSEN,North
2019-11-24T00:00:00Z,1574553600,2019,0,0,328.0,328.0,60.547,-63.7,1002.8,0.93,-999.0,yes,yes,no,300234065714420,BD2GHI,AOML,CCGS_HENRY_LARSEN,North
2019-11-24T01:00:02Z,1574557203,2019,1,0,328.0417,328.0417,60.552,-63.694,1002.5,0.91,-999.0,yes,yes,no,300234065714420,BD2GHI,AOML,CCGS_HENRY_LARSEN,North
2019-11-24T01:59:57Z,1574560797,2019,2,0,328.0833,328.0833,60.552,-63.669,1002.4,0.93,-999.0,yes,yes,no,300234065714420,BD2GHI,AOML,CCGS_HENRY_LARSEN,North
2019-11-24T03:01:00Z,1574564460,2019,3,1,328.1257,328.1257,60.551,-63.638,1001.9,0.92,-999.0,yes,yes,no,300234065714420,BD2GHI,AOML,CCGS_HENRY_LARSEN,North
2019-11-24T04:00:02Z,1574568003,2019,4,0,328.1667,328.1667,60.546,-63.607,1001.6,0.93,-999.0,yes,yes,no,300234065714420,BD2GHI,AOML,CCGS_HENRY_LARSEN,North
2019-11-24T04:59:57Z,1574571597,2019,5,0,328.2083,328.2083,60.54,-63.586,1001.2,0.93,-999.0,yes,yes,no,300234065714420,BD2GHI,AOML,CCGS_HENRY_LARSEN,North
2019-11-24T06:00:00Z,1574575200,2019,6,0,328.25,328.25,60.531,-63.586,1000.9,0.85,-999.0,yes,yes,no,300234065714420,BD2GHI,AOML,CCGS_HENRY_LARSEN,North
2019-11-24T07:00:02Z,1574578803,2019,7,0,328.2917,328.2917,60.518,-63.598,1000.8,0.81,-999.0,yes,yes,no,300234065714420,BD2GHI,AOML,CCGS_HENRY_LARSEN,North
2019-11-24T07:59:57Z,1574582397,2019,8,0,328.3333,328.3333,60.507,-63.636,1000.6,0.81,-999.0,yes,yes,no,300234065714420,BD2GHI,AOML,CCGS_HENRY_LARSEN,North
2019-11-24T09:01:00Z,1574586060,2019,9,1,328.3757,328.3757,60.497,-63.672,1000.5,0.87,-999.0,yes,yes,no,300234065714420,BD2GHI,AOML,CCGS_HENRY_LARSEN,North
2019-11-24T10:00:02Z,1574589603,2019,10,0,328.4167,328.4167,60.488,-63.705,1000.3,0.88,-999.0,yes,yes,no,300234065714420,BD2GHI,AOML,CCGS_HENRY_LARSEN,North
2019-11-24T10:59:57Z,1574593197,2019,11,0,328.4583,328.4583,60.483,-63.724,1000.3,0.87,-999.0,yes,yes,no,300234065714420,BD2GHI,AOML,CCGS_HENRY_LARSEN,North
2019-11-24T12:00:00Z,1574596800,2019,12,0,328.5,328.5,60.485,-63.724,1000.5,0.88,-999.0,yes,yes,no,300234065714420,BD2GHI,AOML,CCGS_HENRY_LARSEN,North
2019-11-24T13:00:02Z,1574600403,2019,13,0,328.5417,328.5417,60.489,-63.701,1000.4,0.86,-999.0,yes,yes,no,300234065714420,BD2GHI,AOML,CCGS_HENRY_LARSEN,North
2019-11-24T13:59:57Z,1574603997,2019,14,0,328.5833,328.5833,60.491,-63.658,1000.5,0.87,-999.0,yes,yes,no,300234065714420,BD2GHI,AOML,CCGS_HENRY_LARSEN,North
2019-11-24T15:00:00Z,1574607600,2019,15,0,328.625,328.625,60.492,-63.597,1000.2,0.91,-999.0,yes,yes,no,300234065714420,BD2GHI,AOML,CCGS_HENRY_LARSEN,North